This demonstration page uses our WeatherBlox Daily Observations layout. Learn more.

Left ArrowRight Arrow

Hourly Observations for April 8, 2015

Temp ( °F °C ) Dew Point ( °F °C ) Humidity (%) Winds ( mph kmh ) Pressure ( in mb ) Visibility ( mi km ) Precip ( " mm )
12:51 am 00:51 Clear 66 18.9 19 -7.2 16 16 W 12 19 29.76 1008 10 16 N/A
1:51 am 01:51 Mostly Clear 63 17.2 18 -7.8 17 17 W 10 17 29.75 1008 10 16 N/A
2:51 am 02:51 Clear 61 16.1 20 -6.7 20 20 NW 6 9 29.75 1007 10 16 N/A
3:51 am 03:51 Clear 58 14.4 21 -6.1 24 24 N N/A 29.75 1008 10 16 N/A
4:51 am 04:51 Clear 53 11.7 22 -5.6 30 30 N N/A 29.76 1008 10 16 N/A
5:51 am 05:51 Clear 55 12.8 22 -5.6 28 28 SSW 3 6 29.77 1008 10 16 N/A
6:51 am 06:51 Sunny 58 14.4 23 -5 26 26 SW 6 9 29.80 1009 10 16 N/A
7:51 am 07:51 Sunny 63 17.2 21 -6.1 20 20 N N/A 29.81 1010 10 16 N/A
8:51 am 08:51 Sunny 69 20.6 22 -5.6 17 17 NW 14 22 29.81 1009 10 16 N/A
9:51 am 09:51 Sunny 71 21.7 24 -4.4 17 17 W 14 22 29.82 1010 10 16 N/A
10:51 am 10:51 Sunny 73 22.8 25 -3.9 17 17 W 12 19 29.81 1009 10 16 N/A
11:51 am 11:51 Sunny 75 23.9 26 -3.3 16 16 NNW 9 15 29.78 1009 10 16 N/A
12:51 pm 12:51 Sunny 77 25 25 -3.9 14 14 W 17 28 29.76 1008 10 16 N/A
1:51 pm 13:51 Sunny 78 25.6 22 -5.6 12 12 NNW 17 28 29.74 1007 10 16 N/A
2:51 pm 14:51 Sunny 78 25.6 20 -6.7 11 11 NW 16 26 29.71 1006 10 16 N/A
3:51 pm 15:51 Sunny 79 26.1 20 -6.7 11 11 WNW 20 31 29.70 1006 10 16 N/A
4:51 pm 16:51 Sunny 76 24.4 20 -6.7 12 12 NW 26 43 29.70 1006 10 16 N/A
5:51 pm 17:51 Sunny 73 22.8 19 -7.2 13 13 NW 25 41 29.72 1006 10 16 N/A
6:51 pm 18:51 Clear 68 20 22 -5.6 17 17 NW 18 30 29.74 1007 10 16 N/A
7:51 pm 19:51 Clear 66 18.9 24 -4.4 20 20 NNW 18 30 29.76 1008 10 16 N/A
8:51 pm 20:51 Clear 63 17.2 24 -4.4 23 23 NNW 10 17 29.78 1009 10 16 N/A
9:51 pm 21:51 Clear 61 16.1 25 -3.9 25 25 NW 3 6 29.80 1009 10 16 N/A
10:51 pm 22:51 Clear 58 14.4 26 -3.3 29 29 WNW 13 20 29.81 1010 10 16 N/A
11:51 pm 23:51 Clear 56 13.3 25 -3.9 30 30 WNW 9 15 29.83 1010 10 16 N/A

Powered by AerisWeather